Location: Port Stanley
(42.6641°N, 81.2156°W)
Time: 07:12:23
(UTC-04:00)

ISS - Pass Details

Date: 29 June 2019
Orbit: 409 x 418 km, 51.6° (Epoch: 16 July)

Event Time Altitude Azimuth Distance (km) Brightness Sun altitude
Exits shadow 04:24:06 - 163° (SSE) 1,681 -1.0 -12.7°
Reaches altitude 10° 04:25:25 10° 143° (SE) 1,468 -1.1 -12.5°
Maximum altitude 04:26:11 11° 130° (SE) 1,432 -1.0 -12.4°
Drops below altitude 10° 04:26:57 10° 116° (ESE) 1,470 -0.8 -12.3°
Sets 04:30:30 0° 76° (ENE) 2,336 1.1 -11.9°
